Rbgn^[z[y[W
メイン
   新天体発見情報
     Comet C/2024 O1 (PANSTARRS)
投稿するにはまず登録を

スレッド表示 | 新しいものから 前のトピック | 次のトピック | 下へ
投稿者 スレッド
佐藤裕久
投稿日時: 2024-8-16 23:10
モデレータ
登録日: 2005-6-12
居住地: 日本
投稿: 2559
オンライン
Comet C/2024 O1 (PANSTARRS)

R. Weryk (西オンタリオ大学,物理および天文学科)の通報によると、7月28日、Haleakalaにある
Pan-STARRS1 1.8-m Ritchey-Chretien反射望遠鏡で得た画像から彗星を発見した。
1".0-1".5のシーイングで得た、4枚の45-秒w-バンドのサーベイ画像は、p.a.115°の方向に非対称
らしく見えるが、明白なコマと尾はない
Werykは、7月29.48日UT、Maunakea山頂の3.6-m Canada-France-Hawaii望遠鏡による3枚の60-秒 
gri確認観測が行われ、0".9のシーイングでは、1".9(半値全幅:FWHM)の頭部とp.a. 80-180°に
わたって、5"の非常に広い尾見えると付け加えた。
2023年6月18.5日(21.7-21.8等)と2023年9月12.3日(21.5-21.7等)の発見前のPan-STARRS1の追加観
測は、HaleakalaのPan-STARRS2 1.8-m Ritchey-Chretien反射望遠鏡で得られた、2023年9月15.3日
(21.5-21.6等)の観測と同様に、小惑星センターの"isolated tracklet file" で発見された。
この彗星はMPCのPCCP websiteに公表され、他の観測につながった。
S. Deen (Simi Valley, カリフォルニア州, 米国)は、2023年7月16.14-16.15日(21.5-21.7等星)と
7月28.2日(20.6-20.7等)に4-m Cerro Tololo反射望遠鏡(+DECam)で観測した二夜の観測を同定した。 
7月16日は僅かな活動で、1".0のシーイングで1".5(FWHM)のコマが見えるが尾はなく、7月28日は
0".9シーイングで1".4のコマが見えるが尾はなかった。 
佐藤英貴氏(東京都文京区, 7月30.66日UT、60-秒露出17枚のスタック, 0.51-m f/6.8 アストログラ
フ, Siding Spring, NSW, オーストラリア, 遠隔操作: 中程度に集光した 5"のコマが見えるが尾は
なかった。3".2の円形範囲で測定した光度は20.9等であった)によって彗星状と観測された。

彗星機能の報告は次のとおり、

OC   Date        Reporter           Coma    Tail    PA          Exposures
W84  2023-07-16  S. Deen            2"
W84  2023-07-28  S. Deen            1".9

発見位置は次のとおり、

     2024 UT             R.A. (2000) Decl.       Mag.
     July 28.39663   21 02 48.52   +14 26 10.6   21.0
          28.41936   21 02 47.85   +14 26 13.8   21.1
          28.43073   21 02 47.51   +14 26 15.7   21.1

MPCの楕円軌道要素、位置推算表は次のとおり、

Orbital elements:
    C/2024 O1 (PANSTARRS)                                                       
Epoch 2024 Oct. 17.0 TT = JDT 2460600.5                                         
T 2023 Jan. 28.99496 TT                                 Rudenko                 
q   6.6081594            (2000.0)            P               Q                  
z  -0.0001926      Peri.  349.92414     +0.46594233     +0.51890317             
 +/-0.0000064      Node   303.33541     -0.74034162     -0.21493626             
e   1.0012729      Incl.   59.07319     -0.48455344     +0.82737047             
From 34 observations 2023 June 18-2024 Aug. 1, mean residual 0".2.              
                                                                                
Ephemeris:
Date    TT    R. A. (2000) Decl.     Delta      r    Elong.  Phase   m1
2024 07 02    21 14 28.7 +12 53 10   6.7742  7.4520   128.7     6.1  21.4
...
2024 07 17    21 08 12.2 +13 52 55   6.6953  7.4975   139.5     5.0  21.4
...
2024 07 25    21 04 27.2 +14 17 24   6.6751  7.5221   144.2     4.5  21.4
...
2024 07 31    21 01 32.1 +14 32 15   6.6707  7.5408   146.8     4.2  21.4
2024 08 01    21 01 02.6 +14 34 26   6.6709  7.5439   147.2     4.2  21.4
2024 08 02    21 00 33.1 +14 36 32   6.6714  7.5470   147.5     4.1  21.4
...
2024 08 08    20 57 35.8 +14 47 22   6.6799  7.5658   148.8     4.0  21.4
...
2024 08 16    20 53 42.7 +14 57 19   6.7064  7.5911   148.9     4.0  21.4
...
2024 08 31    20 46 58.2 +15 03 32   6.8020  7.6393   143.7     4.5  21.5

(MPEC 2024-P21、CBET 5424)

スレッド表示 | 新しいものから 前のトピック | 次のトピック | トップ

投稿するにはまず登録を
 
© 1999 Tsutomu Seki.